Location: Newark
(45.8511°N, 10.8245°E)
Time: 02:27:20
(UTC+00:00)

OTV 5 (USA 277) - Visible Passes

Search period start: 22 August 2019 00:00
Search period end: 01 September 2019 00:00
Orbit: 305 x 329 km, 54.5° (Epoch: 20 August)

Date Brightness Start Highest point End Pass type
(mag) Time Alt. Az. Time Alt. Az. Time Alt. Az.
22 Aug ? 02:41:19 45° NW 02:42:00 83° NE 02:44:38 10° ESE visible
23 Aug ? 02:57:33 24° S 02:57:33 24° S 02:58:56 10° SSE visible
23 Aug ? 19:15:57 10° S 19:17:21 17° SSE 19:17:21 17° SSE visible
24 Aug ? 19:29:43 10° SW 19:32:20 47° SE 19:33:12 32° E visible
25 Aug ? 19:44:11 10° WSW 19:46:52 65° NNW 19:48:20 23° NE visible
26 Aug ? 19:59:04 10° W 20:01:31 30° NNW 20:02:59 18° NNE visible
27 Aug ? 18:38:59 10° SW 18:41:42 78° SE 18:44:23 10° ENE visible
27 Aug ? 20:14:13 10° WNW 20:16:17 19° NNW 20:17:20 16° NNE visible
28 Aug ? 18:53:40 10° WSW 18:56:17 43° NNW 18:58:52 10° NE visible
28 Aug ? 20:29:29 10° NW 20:31:08 15° N 20:31:29 14° N visible
29 Aug ? 19:08:43 10° W 19:11:00 24° NNW 19:13:16 10° NE visible
29 Aug ? 20:44:37 10° NNW 20:45:30 13° NNW 20:45:30 13° NNW visible
30 Aug ? 19:23:57 10° WNW 19:25:48 16° NNW 19:27:39 10° NNE visible
30 Aug ? 20:59:23 10° NNW 20:59:26 10° NNW 20:59:26 10° NNW visible
31 Aug ? 19:39:11 10° NW 19:40:40 14° N 19:42:10 10° NNE visible
